Regional Weather Roundup
Issued by NWS

Home | Current Version | Previous Version | Text Only | Print | Product List | Glossary On
Versions: 1 2 3 4 5 6 7 8 9 10 11 12 13 14 15 16 17 18 19 20 21 22 23 24 25 26 27 28 29 30 31 32 33 34 35 36 37 38 39 40 41 42 43 44 45 46 47 48 49 50
000
ASUS43 KIND 010309
RWRIN

WEATHER ROUNDUP FOR INDIANA
NATIONAL WEATHER SERVICE INDIANAPOLIS IN
1000 PM EST SAT FEB 28 2015

NOTE: "FAIR" INDICATES FEW OR NO CLOUDS BELOW 12,000 FEET WITH NO
SIGNIFICANT WEATHER AND/OR OBSTRUCTIONS TO VISIBILITY.

* - STATION DOES NOT REPORT WEATHER SUCH AS PRECIPITATION OR FOG.

+ - STATION NOT QUALITY CONTROLLED BY THE NATIONAL WEATHER SERVICE.
    USE DATA WITH CAUTION...ESPECIALLY DEWPOINT AND RELATIVE
    HUMIDITY OBSERVATIONS.

INZ001>003-010>013-019-020-010400-
NORTHWEST INDIANA

CITY           SKY/WX    TMP DP  RH WIND       PRES   REMARKS
GARY /AIRPORT/ LGT SNOW  20  13  73 SE5       30.54S WCI  14
KNOX *+          N/A     19   9  63 SE7       30.53S WCI  10
LA PORTE +     LGT SNOW  19  15  82 SE7       30.53S WCI  10
MICHIGAN CITY+ LGT SNOW  19  12  73 SE3       30.54S
MONTICELLO +   LGT SNOW  19  17  93 SE3       30.52F
RENSSELAER +   LGT SNOW  21  21 100 E6        30.52F VSB 1   WCI  14
VALPARAISO     CLOUDY    18  13  80 SE7       30.52F WCI   9

$$

LMZ046-743>745-010400-
SOUTHERN LAKE MICHIGAN

STATION/POSITION TIME  TEMP WIND        PRES
                       AIR  DIR/SP/G
                 (UTC) (F)  (DEG/KT/KT) (MB)
MICHIGAN CITY    0300   18  110/  5/  7   N/A

$$

INZ004-005-014>016-021>024-010400-
NORTH CENTRAL INDIANA

CITY           SKY/WX    TMP DP  RH WIND       PRES   REMARKS
GOSHEN         LGT SNOW  16  10  77 SE8       30.53F WCI   5
LOGANSPORT +   LGT SNOW  19  18  93 E8        30.54F WCI   9
PERU/GRISSOM   LGT SNOW  18  15  89 E8        30.52F FOG     WCI   8
ROCHESTER +    LGT SNOW  21  18  86 SE6       30.54S WCI  14
SOUTH BEND     LGT SNOW  18  12  77 SE10      30.53F WCI   6
WARSAW +       LGT SNOW  18  14  86 SE3       30.54R

$$

INZ006>009-017-018-025>027-010400-
NORTHEAST INDIANA

CITY           SKY/WX    TMP DP  RH WIND       PRES   REMARKS
ANGOLA *+      CLOUDY    14   7  73 SE6       30.53S WCI   5
FORT WAYNE     LGT SNOW  16  12  84 E6        30.56S VSB 1   WCI   7
HUNTINGTON +   LGT SNOW  17  12  79 SE5       30.54F WCI  10

$$

INZ028-029-035-036-043>045-051>053-010400-
WEST CENTRAL INDIANA

CITY           SKY/WX    TMP DP  RH WIND       PRES   REMARKS
CRAWFORDSVL +  LGT SNOW  19  15  83 E7        30.50F WCI  10
GREENCASTLE +  LGT SNOW  21  18  86 SE6       30.51F WCI  14
LAFAYETTE      LGT SNOW  20  18  92 E5        30.52F FOG     WCI  13
TERRE HAUTE    LGT SNOW  24  22  91 E6        30.51F VSB 3/4 WCI  17

$$

INZ030>032-037>040-046>048-054>057-064-065-010400-
CENTRAL INDIANA

CITY           SKY/WX    TMP DP  RH WIND       PRES   REMARKS
CP ATTERBURY + LGT SNOW  27  18  69 SE5       30.54R WCI  21
FRANKFORT +    LGT SNOW  20  19  94 E8        30.52F WCI  11
GREENWOOD *+   CLOUDY    21  16  79 E5        30.52S WCI  15
INDIANAPOLIS   SNOW      21  18  88 E7        30.51F VSB 1/2 WCI  12
-EAGLE CREEK   LGT SNOW  20  18  92 E6        30.51F VSB 3/4 WCI  12
KOKOMO *+        N/A     18  14  86 SE9       30.53S WCI   6
MARION +       LGT SNOW  18  14  86 E7        30.53F WCI   8
MT COMFORT *+  CLOUDY    21  21 100 E6        30.52F VSB 1   WCI  14
SHELBYVILLE    LGT SNOW  23  19  85 E7        30.53R VSB 1   WCI  15
ZIONSVILLE +   LGT SNOW  21  17  84 SE6       30.51F VSB 1   WCI  13

$$

INZ033-034-041-042-049-050-058-059-010400-
EAST CENTRAL INDIANA

CITY           SKY/WX    TMP DP  RH WIND       PRES   REMARKS
MUNCIE         LGT SNOW  19  15  84 E5        30.53S VSB 3/4 WCI  12

$$

INZ060-061-067>069-081>083-085>088-010400-
SOUTHWEST INDIANA

CITY           SKY/WX    TMP DP  RH WIND       PRES   REMARKS
EVANSVILLE     CLOUDY    34  19  54 N9        30.49F WCI  27
HUNTINGBURG *+ CLOUDY    32  18  55 N9        30.50R WCI  24
WASHINGTON +   LGT SNOW  28  19  67 E7        30.51F WCI  21

$$

INZ062-063-066-070>080-084-089>092-010400-
SOUTH CENTRAL AND SOUTHEAST INDIANA

CITY           SKY/WX    TMP DP  RH WIND       PRES   REMARKS
BLOOMINGTON    LGT SNOW  23  21  92 E5        30.50F VSB 3/4 WCI  17
NORTH VERNON + CLOUDY    28  12  50 NE7       30.52R WCI  21
SEYMOUR +      CLOUDY    30  16  55 N7        30.52S WCI  23

$$



USA.gov is the U.S. government's official web portal to all federal, state and local government web resources and services.